星链-36585(STARLINK-36585)

导读

STARLINK-36585是美国SpaceX星链星座的成员卫星,星链项目旨在构建全球卫星互联网星座,为全球提供高速低延迟网络服务。该星于2026年1月22日发射升空,入轨后将参与星链星座组网,补充完善星座覆盖能力,进一步推动全球互联网普及,尤其服务偏远地区和移动场景的网络接入需求。

基本信息
目录编号:
67540
目录名称:
STARLINK-36585
国际标识:
2026-014J
轨道中心:
EARTH
卫星名称:
星链-36585
卫星全名:
星链-36585(STARLINK-36585)
卫星状态:
在轨 (已飞行225 天)
发射日期:
2026-01-22 UTC
国别 :
美国 (US)
星等 :
--
轨道信息
数据来源 国际轨道数据
星历时间: 2026-09-04T11:42:16+0800
12小时前
查看轨道信息
半长轴: 6843.675km
偏心率: 0.000144
轨道倾角: 97.284°
近地点辐角 100.542°
升交点赤经 132.755°
平近点角 259.599°
近地点: 464.552km
远地点: 466.524km
周期: 93.906分钟
每日圈数: 15.33447
详细信息
固有亮度:
5
最大亮度:
2.5
卫星平台:
Starlink V1.0
覆盖范围:
全球
运营商:
太空探索技术公司
运营商所在国:
美国
制造商(研发单位):
太空探索技术公司
制造商所在国:
美国
使用方式:
暂无
卫星简介
Starlink 计划是 SpaceX 推出的全球卫星互联网项目,通过发射低轨道卫星,为全球尤其是偏远地区提供高速、低延迟的互联网服务。自 2019 年起,Starlink 已部署数千颗卫星,旨在缩小全球数字鸿沟,推动互联网普及。该项目还为军事、航空等行业提供通信支持,带来广泛经济效益。
2D轨道图
3D轨道图
轨道高度分析图
轨道倾角分析图
轨道综合分析图
查看轨道综合分析图
交会数据列表
事件ID 空间交会对象 最接近时刻(TCA) 交会距离 交会风险概率(CRP) 交会风险指数(CRI) 操作
CDM_260905-220005-717506-754021
OBJECT K (57175)
2026-09-05T
22:00:53+0000
1.680 km
极远距离
4.751558E-6 低风险 0.49
CDM_260906-205204-867606-754021
2026-09-06T
20:52:56+0000
2.836 km
极远距离
1.399182E-6 低风险 0.38